Home   Weather   Pasco   Past weeks

Flag for USA Past Weather in Pasco, Washington, USA — Yesterday and Last 2 Weeks

Now
28 °F

Low clouds.


Feels Like: 24 °F
Forecast: 25 / 33 °F
Wind: 3 mph from Northwest

Location: Tri-Cities Airport

Current Time: Jan 23, 2017 at 3:04:33 am

Latest Report: Jan 23, 2017 at 1:53 am


Visibility: 7 mi

Pressure: 29.74 "Hg

Humidity: 100%

Dew Point: 28 °F

Location of PascoLocation

Past Weather in Pasco — Graph

°F

Pasco Temperature Yesterday

Maximum temperature yesterday: 36 °F (at 3:53 pm)
Minimum temperature yesterday: 22 °F (at 11:10 pm)
Average temperature yesterday: 29 °F

High & Low Weather Summary for the Past Weeks

 TemperatureHumidityPressure
High40 °F (Jan 19, 1:53 pm)100% (Jan 8, 1:53 pm)30.81 "Hg (Jan 8, 1:53 pm)
Low-5 °F (Jan 13, 7:24 pm)62% (Jan 11, 5:53 am)29.23 "Hg (Jan 20, 4:53 pm)
Average19 °F91%30.02 "Hg
* Reported Jan 8 1:53 am — Jan 23 1:53 am, Pasco, Weather by CustomWeather, © 2017

Note: Actual official high and low records may vary slightly from our data, if they occured in-between our weather recording intervals... More about our weather records

Advertising

Pasco Weather History for the Previous 24 Hours

Scroll right to see more
 ConditionsComfort  
Time TempWeatherWind HumidityBarometerVisibility
1:53 am
Mon, Jan 23
28 °FLow clouds.3 mph100%29.74 "Hg7 mi
1:26 am28 °FIce fog.5 mph100%29.72 "Hg3 mi
12:53 am27 °FIce fog.6 mph100%29.72 "Hg0 mi
11:53 pm
Sun, Jan 22
24 °FIce fog.3 mph100%29.70 "Hg0 mi
11:43 pm24 °FIce fog.No wind100%29.69 "Hg0 mi
11:10 pm22 °FIce fog.5 mph100%29.68 "Hg1 mi
10:27 pm23 °FIce fog.6 mph100%29.66 "Hg0 mi
9:53 pm25 °FIce fog.5 mph100%29.67 "Hg3 mi
8:53 pm26 °FIce fog.5 mph96%29.67 "Hg3 mi
7:53 pm30 °FIce fog.5 mph100%29.67 "Hg5 mi
6:53 pm32 °FIce fog.9 mph100%29.66 "Hg5 mi
5:53 pm34 °FClear.No wind100%29.67 "Hg9 mi
4:53 pm35 °FPassing clouds.No wind96%29.66 "Hg9 mi
3:53 pm36 °FMostly cloudy.3 mph92%29.64 "Hg10 mi
2:53 pm36 °FOvercast.8 mphN/A29.60 "Hg6 mi
1:53 pm36 °FLight rain. Overcast.15 mphN/A29.59 "Hg7 mi
12:53 pm34 °FMostly cloudy.8 mphN/A29.57 "Hg5 mi
11:57 am32 °FLight rain. Ice fog.6 mph96%29.58 "Hg2 mi
11:08 am31 °FLight rain. Ice fog.3 mph100%29.60 "Hg3 mi
10:53 am30 °FLight freezing rain. Ice fog.No wind100%29.62 "Hg2 mi
10:14 am29 °FLight freezing rain. Ice fog.5 mph100%29.62 "Hg1 mi
9:53 am29 °FIcy mix. Ice fog.5 mph100%29.64 "Hg1 mi
9:00 am28 °FLight mixture of precip. Ice fog.No wind100%29.62 "Hg1 mi
8:53 am28 °FLight mixture of precip. Ice fog.5 mph100%29.62 "Hg1 mi
7:53 am25 °FIce fog.3 mph96%29.62 "Hg1 mi
7:37 am25 °FIce fog.No wind100%29.62 "Hg0 mi
6:53 am26 °FIce fog.No wind100%29.62 "Hg0 mi
5:53 am27 °FIce fog.No wind100%29.65 "Hg0 mi
5:37 am27 °FIce fog.No wind100%29.64 "Hg1 mi
4:53 am29 °FIce fog.5 mph100%29.67 "Hg0 mi
3:53 am28 °FIce fog.5 mph100%29.68 "Hg0 mi
Weather by CustomWeather, © 2017

See weather overviewHow to use our weather pages